Regional Weather Roundup
Issued by NWS Green Bay, WI

Home | Current Version | Previous Version | Graphics & Text | Print | Product List | Glossary Off
Versions: 1 2 3 4 5 6 7 8 9 10 11 12 13 14 15 16 17 18 19 20 21 22 23 24 25 26 27 28 29 30 31 32 33 34 35 36 37 38 39 40 41 42 43 44 45 46 47 48 49 50

000
ASUS43 KGRB 291611
RWRGRB

NORTH-CENTRAL AND NORTHEAST WISCONSIN REGIONAL WEATHER ROUNDUP
NATIONAL WEATHER SERVICE GREEN BAY WI
1100 AM CDT FRI APR 29 2016

WIZ005-009-010>012-018-019-291700-
NORTH CENTRAL WISCONSIN

CITY           SKY/WX    TMP DP  RH WIND       PRES   REMARKS
IRONWOOD         N/A     46  28  49 NW8       30.15S
MANITOWISH WTR MOSUNNY   49  32  52 CALM      30.13F
ARBOR VITAE    CLOUDY    49  35  56 E7        30.13F
EAGLE RIVER    PTSUNNY   47  29  50 E5        30.14S
LAND O LAKES   CLOUDY    47  32  55 NW6       30.15S
RHINELANDER    CLOUDY    49  33  54 VRB5      30.14F
PHILLIPS       MOSUNNY   48  34  57 CALM      30.13F
ANTIGO         PTSUNNY   48  34  60 CALM      30.14R
TOMAHAWK       CLOUDY    46  33  62 NE5       30.15S
MERRILL        CLOUDY    46  34  61 NE5       30.15S
$$

WIZ013-073-291700-
NORTHEAST WISCONSIN

CITY           SKY/WX    TMP DP  RH WIND       PRES   REMARKS
IRON MOUNTAIN  CLOUDY    50  28  42 NE10      30.13F
MARINETTE      MOSUNNY   46  30  53 E10       30.15S
OCONTO         CLOUDY    46  32  57 E7        30.14S
$$

WIZ017-030-035>037-045-291700-
CENTRAL WISCONSIN

CITY           SKY/WX    TMP DP  RH WIND       PRES   REMARKS
MEDFORD        CLOUDY    43  37  80 N6        30.14S
WAUSAU         CLOUDY    49  35  58 NE7       30.12F
MOSINEE        CLOUDY    45  36  70 NE6       30.15S
MARSHFIELD     MOSUNNY   49  37  63 VRB7      30.10F
WISC RAPIDS    CLOUDY    49  36  61 N12       30.12F
STEVENS POINT  CLOUDY    46  34  62 N8        30.12F
WAUPACA        PTSUNNY   51  33  50 N10       30.13F
SHAWANO        CLOUDY    50  34  53 E6        30.15R
CLINTONVILLE   CLOUDY    50  32  50 NE9       30.13S
WAUTOMA        MOSUNNY   49  34  56 NE10G21   30.11
$$

WIZ038-039-048-051-291700-
FOX VALLEY

CITY           SKY/WX    TMP DP  RH WIND       PRES   REMARKS
NWS GREEN BAY  MOSUNNY   49  36  61 NE12      30.14R
APPLETON       PTSUNNY   46  34  61 NE9       30.10S
OSHKOSH        PTSUNNY   48  34  58 NE15      30.10F
FOND DU LAC    MOSUNNY   49  37  63 NE12      30.12S
$$

WIZ022-050-052-291700-
EAST CENTRAL WISCONSIN

CITY           SKY/WX    TMP DP  RH WIND       PRES   REMARKS
EPHRAIM        CLOUDY    44  27  51 N8        30.14R
STURGEON BAY   CLOUDY    48  30  49 E9        30.16R
MANITOWOC      SUNNY     47  32  56 MISG      30.13R
SHEBOYGAN      CLOUDY    47  34  60 NE16      30.11R
$$

LMZ563-521-522-541>543-291700-
LAKESHORE

STATION/POSITION TIME  TEMP    WIND        PRES    VSBY  WAVE
                       AIR SEA DIR/SP/G                  HT/PER
                 (UTC) (F)     (DEG/KT/KT) (MB)    (MI)  (FT/S)
SHEBOYGAN LKSHOR 1600   40      40/  9/ 10 1021.0R
KEWAUNEE LKSHORE 1500   43      30/ 12/ 14 1019.2F
ALGOMA MARINA    1515           40/ 12/ 16   N/A
NORTHPORT PIER   1500   40     320/  7/  8 1021.0F
N MID LAKE BUOY  1550   39 39  360/ 10/ 14 1020.9F         1/ 3
CHAMBERS ISLAND  1500   41     360/ 10/ 11 1021.3
MENOMINEE LKSHOR 1500   41      30/ 11/ 13 1019.6F
$$




USA.gov is the U.S. government's official web portal to all federal, state and local government web resources and services.